FW2347 Weather Reports


time (UTC)temp
C
wind
direction
speed
KPH
gust
KPH
rain 1hr
cm
rain 24hr
cm
rain mn
cm
humidity
%
barometer
mb
20260502163021 17 230 0.0 0.0 0.00 0.00 0.00 60 1018.3
20260502161609 17 234 0.0 0.0 0.00 0.00 0.00 58 1018.5
20260502151522 18 188 0.0 0.0 0.00 0.00 0.00 62 1018.6
20260502123108 17 25 0.0 0.0 0.00 0.00 0.00 70 1020.6
20260502121526 16 42 0.0 0.0 0.00 0.00 0.00 71 1020.8
20260502120121 16 76 0.0 0.0 0.00 0.00 0.00 70 1021.0
20260502114549 15 56 0.0 0.0 0.00 0.00 0.00 65 1021.1
20260502113016 15 74 0.0 0.0 0.00 0.00 0.00 60 1021.4
20260502111611 15 68 0.0 0.0 0.00 0.00 0.00 53 1021.5
20260502110037 15 55 0.0 0.0 0.00 0.00 0.00 49 1021.7
20260502104523 14 53 0.0 0.0 0.00 0.00 0.00 40 1021.8
20260502103054 13 53 0.0 0.0 0.00 0.00 0.00 38 1022.0
20260502101530 13 56 0.0 0.0 0.00 0.00 0.00 40 1022.2
20260502091502 13 65 0.0 0.0 0.00 0.00 0.00 27 1022.3
20260502071516 13 167 0.0 0.0 0.00 0.00 0.00 20 1022.1
20260502070112 12 167 0.0 0.0 0.00 0.00 0.00 20 1022.1
20260502064514 12 167 0.0 0.0 0.00 0.00 0.00 22 1022.0
20260502063102 13 173 0.0 0.0 0.00 0.00 0.00 25 1021.9
20260502061553 12 173 0.0 0.0 0.00 0.00 0.00 32 1021.8
20260502060024 12 173 0.0 0.0 0.00 0.00 0.00 39 1021.8
20260502054504 12 173 0.0 0.0 0.00 0.00 0.00 47 1021.7
20260502053100 12 173 0.0 0.0 0.00 0.00 0.00 50 1021.5
20260502051600 12 173 0.0 0.0 0.00 0.00 0.00 50 1021.4
20260502050046 12 173 0.0 0.0 0.00 0.00 0.00 52 1021.3
20260502044531 13 173 0.0 0.0 0.00 0.00 0.00 56 1021.3
20260502043029 13 173 0.0 0.0 0.00 0.00 0.00 58 1021.2
20260502041506 13 173 0.0 0.0 0.00 0.00 0.00 58 1021.2
20260502040038 13 180 0.0 0.0 0.00 0.00 0.00 57 1021.3
20260502034522 12 180 0.0 0.0 0.00 0.00 0.00 54 1021.4
20260502033050 12 179 0.0 0.0 0.00 0.00 0.00 53 1021.5
20260502031524 13 180 0.0 0.0 0.00 0.00 0.00 55 1021.5
20260502030006 13 180 0.0 0.0 0.00 0.00 0.00 57 1021.6
20260502024553 12 180 0.0 0.0 0.00 0.00 0.00 55 1021.7
20260502023031 12 180 0.0 0.0 0.00 0.00 0.00 53 1021.7
20260502021507 12 179 0.0 0.0 0.00 0.00 0.00 53 1022.0
20260502020047 12 180 0.0 0.0 0.00 0.00 0.00 51 1022.0
20260502014529 12 180 0.0 0.0 0.00 0.00 0.00 48 1022.1
20260502013105 12 180 0.0 0.0 0.00 0.00 0.00 44 1022.1
20260502011520 12 179 0.0 0.0 0.00 0.00 0.00 38 1022.2
20260502010051 12 180 0.0 0.0 0.00 0.00 0.00 33 1022.4
20260502004532 12 179 0.0 0.0 0.00 0.00 0.00 31 1022.6
20260502003019 12 180 0.0 0.0 0.00 0.00 0.00 32 1022.8
20260502001509 12 180 0.0 0.0 0.00 0.00 0.00 32 1022.8
20260502000029 11 179 0.0 0.0 0.00 0.00 0.00 31 1023.1
20260501234513 11 180 0.0 0.0 0.00 0.00 0.00 33 1022.9
20260501233040 11 180 0.0 0.0 0.00 0.00 0.00 37 1023.1
20260501231524 11 180 0.0 0.0 0.00 0.00 0.00 38 1023.2
20260501224528 11 184 0.0 0.0 0.00 0.00 0.00 43 1022.9
20260501223105 10 186 0.0 0.0 0.00 0.00 0.00 50 1022.7
20260501221533 11 197 0.0 0.0 0.00 0.00 0.00 53 1022.7
20260501220012 10 196 0.0 0.0 0.00 0.00 0.00 59 1022.7
20260501214543 10 197 0.0 0.0 0.00 0.00 0.00 61 1022.7
20260501213029 10 197 0.0 0.0 0.00 0.00 0.00 63 1022.7
20260501211604 10 197 0.0 0.0 0.00 0.00 0.00 65 1022.7
20260501210026 10 198 0.0 0.0 0.00 0.00 0.00 67 1022.6
20260501204608 10 197 0.0 0.0 0.00 0.00 0.00 69 1022.6
20260501203017 11 197 0.0 0.0 0.00 0.00 0.00 71 1022.4
20260501201502 11 197 0.0 0.0 0.00 0.00 0.00 72 1022.2
20260501200003 12 198 0.0 0.0 0.00 0.00 0.00 72 1022.0
20260501194557 12 198 0.0 0.0 0.00 0.00 0.00 73 1021.8
20260501193058 12 198 0.0 0.0 0.00 0.00 0.00 73 1021.5
20260501191550 13 198 0.0 0.0 0.00 0.00 0.00 72 1021.3
20260501190006 14 198 0.0 0.0 0.00 0.00 0.00 71 1021.3
20260501184531 15 198 0.0 0.0 0.00 0.00 0.00 69 1021.0
20260501183004 16 198 0.0 0.0 0.00 0.00 0.00 65 1020.8
20260501181617 17 198 0.0 0.0 0.00 0.00 0.00 63 1020.5
20260501180033 18 196 0.0 0.0 0.00 0.00 0.00 62 1020.4
20260501174511 18 190 0.0 0.0 0.00 0.00 0.00 60 1020.2
20260501173114 18 216 0.0 0.0 0.00 0.00 0.00 59 1020.2
20260501171547 19 225 0.0 0.0 0.00 0.00 0.00 59 1020.0